Siskiyou Pass Past Weather

Last 30 Days

 
High: 52ºf @1:54 PM    Low: 23ºf @4:54 AM     Approx. Precipitation / Rain Total: in.
Time (PST)Temp. (ºf)Humidity (%)Dew Point (ºf)Barometer (inHG)Wind Speed (mph)Wind DirectionWind Gust (mph)1hr. Precip / Rain Total (in.)Snow Depth
6:54 PM328427.72-1.74nne5.21--
5:54 PM357527.89-1.74ne5.21--
4:54 PM406428.82-0.87n7.82--
3:54 PM465128.9-2.61wnw7.82--
2:54 PM494528.59-2.61nw10.43--
1:54 PM523927.82-2.61nw7.82--
12:54 PM514128.14-2.61nw9.56--
11:54 AM484527.68-4.34nw9.56--
10:54 AM455127.97-2.61nw9.56--
9:54 AM406328.44-1.74wnw10.43--
8:54 AM308626.33-0.87n3.48--
7:54 AM239221.03-0.87n3.48--
6:54 AM239120.77---3.48--
5:54 AM239020.51-1.74nne4.34--
4:54 AM239020.51-1.74ne3.48--
3:54 AM249021.5-1.74nne3.48--
2:54 AM249121.76-1.74ne3.48--
1:54 AM249121.76-1.74ne2.61--
12:54 AM259022.49-0.87n3.48--
High: 49ºf @1:54 PM    Low: 21ºf @6:54 AM     Approx. Precipitation / Rain Total: in.
Time (PST)Temp. (ºf)Humidity (%)Dew Point (ºf)Barometer (inHG)Wind Speed (mph)Wind DirectionWind Gust (mph)1hr. Precip / Rain Total (in.)Snow Depth
11:54 PM268822.94-0.87ne4.34--
10:54 PM268822.94-1.74ne4.34--
9:54 PM278924.2-1.74ne3.48--
8:54 PM288925.19-1.74nne3.48--
7:54 PM288824.91---3.48--
6:54 PM308626.33-2.61nne4.34--
5:54 PM338027.52-1.74ne5.21--
4:54 PM386426.92-1.74nnw7.82--
3:54 PM435427.51-2.61nw11.3--
1:54 PM494428.05-2.61nw8.69--
12:54 PM474627.31-3.48nw10.43--
11:54 AM454927-3.48nw10.43--
10:54 AM435025.65-3.48nw9.56--
9:54 AM405625.59-3.48nw8.69--
8:54 AM307723.68-0.87e4.34--
7:54 AM228618.47-0.87ene4.34--
6:54 AM218617.48-2.61ne4.34--
5:54 AM228417.92-2.61ne4.34--
4:54 AM228718.73-1.74ne4.34--
3:54 AM238619.45-0.87ne4.34--
2:54 AM248720.7-2.61ne4.34--
1:54 AM248620.43-2.61ne5.21--
12:54 AM248921.24-1.74nne4.34--
High: 43ºf @2:54 PM    Low: 25ºf @11:54 PM     Approx. Precipitation / Rain Total: in.
Time (PST)Temp. (ºf)Humidity (%)Dew Point (ºf)Barometer (inHG)Wind Speed (mph)Wind DirectionWind Gust (mph)1hr. Precip / Rain Total (in.)Snow Depth
11:54 PM258922.23-1.74nne3.48--
10:54 PM269123.74-1.74nne3.48--
7:54 PM288925.19-1.74ne3.48--
6:54 PM308425.76-1.74ene4.34--
5:54 PM347426.6---4.34--
4:54 PM386728.03---9.56--
3:54 PM415927.78-3.48n11.3--
2:54 PM435427.51-3.48nnw10.43--
11:54 AM425727.88-4.34n12.17--
10:54 AM416128.6-2.61nnw9.56--
9:54 AM396829.35-5.21nne12.17--
8:54 AM367528.86-2.61n8.69--
7:54 AM338930.12-0.87nw5.21--
6:54 AM328728.58-0.87n6.08--
5:54 AM338528.99-2.61n6.95--
4:54 AM299226.97---3.48--
3:54 AM328728.58-1.74nne5.21--
2:54 AM338528.99-1.74nnw6.08--
1:54 AM328628.3-0.87nw4.34--
12:54 AM357226.9-1.74nne10.43--
High: 45ºf @11:54 AM    Low: 32ºf @7:54 AM     Approx. Precipitation / Rain Total: in.
Time (PST)Temp. (ºf)Humidity (%)Dew Point (ºf)Barometer (inHG)Wind Speed (mph)Wind DirectionWind Gust (mph)1hr. Precip / Rain Total (in.)Snow Depth
11:54 PM357828.85-0.87nw6.95--
10:54 PM348229.09-2.61nw7.82--
9:54 PM357527.89-2.61n15.64--
7:54 PM376727.08-3.48nw11.3--
6:54 PM376827.44-3.48nnw10.43--
5:54 PM367528.86-1.74wnw9.56--
4:54 PM377529.83-1.74wnw7.82--
3:54 PM405926.84-2.61nnw10.43--
2:54 PM415425.64-3.48n9.56--
1:54 PM454625.48-4.34n10.43--
12:54 PM445026.57-2.61n9.56--
11:54 AM454826.5-4.34n11.3--
10:54 AM455630.26-2.61nw6.95--
9:54 AM416530.15-1.74nw7.82--
7:54 AM329229.94-0.87wnw8.69--
6:54 AM329029.41-1.74wnw8.69--
5:54 AM348128.79-2.61nw8.69--
4:54 AM339030.39---11.3--
3:54 AM368431.64-2.61nw11.3--
2:54 AM369033.36-2.61nw9.56--
1:54 AM369434.44-1.74nw11.3--
12:54 AM408234.96-1.74s10.43--
High: 58ºf @1:54 PM    Low: 28ºf @6:54 AM     Approx. Precipitation / Rain Total: in.
Time (PST)Temp. (ºf)Humidity (%)Dew Point (ºf)Barometer (inHG)Wind Speed (mph)Wind DirectionWind Gust (mph)1hr. Precip / Rain Total (in.)Snow Depth
11:54 PM417634.02-5.21ese14.77--
10:54 PM427233.64-6.08se11.3--
9:54 PM407532.73-5.21ese8.69--
8:54 PM397632.09-0.87wnw11.3--
7:54 PM465430.3-5.21ese13.03--
6:54 PM398033.36-0.87ssw3.48--
5:54 PM427434.32---1.74--
4:54 PM495533.54---6.95--
3:54 PM544533.14-0.87s7.82--
2:54 PM574133.54-0.87sw3.48--
1:54 PM583933.18-1.74sse4.34--
12:54 PM574334.73-0.87sw3.48--
11:54 AM534532.23-1.74sse4.34--
10:54 AM505534.48-0.87sse3.48--
9:54 AM456634.33---3.48--
8:54 AM358731.53-0.87ese2.61--
7:54 AM299427.49-1.74ne4.34--
6:54 AM289526.76-2.61ne5.21--
5:54 AM319630-0.87wnw2.61--
4:54 AM339030.39---7.82--
3:54 AM339531.73-0.87nnw5.21--
2:54 AM339331.2-0.87nw5.21--
1:54 AM368732.51-1.74nw10.43--
12:54 AM368632.23-3.48nne7.82--
High: 51ºf @12:54 PM    Low: 31ºf @6:54 AM     Approx. Precipitation / Rain Total: in.
Time (PST)Temp. (ºf)Humidity (%)Dew Point (ºf)Barometer (inHG)Wind Speed (mph)Wind DirectionWind Gust (mph)1hr. Precip / Rain Total (in.)Snow Depth
11:54 PM378633.21-2.61nne7.82--
10:54 PM378633.21-3.48n7.82--
9:54 PM398033.36-1.74nnw6.95--
8:54 PM408234.96-1.74n7.82--
7:54 PM408034.34-2.61n7.82--
6:54 PM398033.36-1.74nne6.08--
5:54 PM407532.73-2.61nw9.56--
4:54 PM427032.94-2.61nw10.43--
3:54 PM465932.48-4.34nnw13.03--
12:54 PM514630.96-4.34n16.51--
11:54 AM504630.04-3.48n13.9--
10:54 AM485532.61-3.48nw8.69--
9:54 AM456232.77-2.61wnw8.69--
8:54 AM397431.43-3.48wnw8.69--
7:54 AM338729.56-1.74nnw5.21--
6:54 AM318727.59-1.74nnw5.21--
5:54 AM328528.01---6.95--
4:54 AM348028.49-3.48nw8.69--
3:54 AM337927.21-2.61nw7.82--
2:54 AM347928.18-1.74nnw11.3--
High: 49ºf @11:54 AM    Low: 23ºf @6:54 AM     Approx. Precipitation / Rain Total: in.
Time (PST)Temp. (ºf)Humidity (%)Dew Point (ºf)Barometer (inHG)Wind Speed (mph)Wind DirectionWind Gust (mph)1hr. Precip / Rain Total (in.)Snow Depth
11:54 PM347627.24---4.34--
10:54 PM357327.24-0.87nne6.95--
9:54 PM337927.21-1.74nnw7.82--
8:54 PM328528.01-1.74ene3.48--
7:54 PM328227.14---2.61--
6:54 PM318527.03-1.74ne3.48--
5:54 PM337927.21-0.87nne3.48--
4:54 PM396427.87-2.61ene5.21--
3:54 PM396427.87-1.74wsw12.17--
2:54 PM396327.49-1.74nnw6.95--
1:54 PM396427.87-3.48nw7.82--
12:54 PM416228.99-2.61nw8.69--
11:54 AM494226.92-0.87nw5.21--
10:54 AM474627.31---4.34--
9:54 AM416128.6---3.48--
8:54 AM318326.45-1.74e4.34--
7:54 AM258922.23-2.61ne4.34--
6:54 AM239020.51-2.61ne5.21--
5:54 AM248921.24-2.61ne6.08--
4:54 AM239120.77-2.61ne5.21--
3:54 AM249121.76-2.61ne5.21--
1:54 AM259022.49-2.61ne4.34--
12:54 AM268822.94-2.61ne4.34--
High: 46ºf @12:54 PM    Low: 22ºf @5:54 AM     Approx. Precipitation / Rain Total: in.
Time (PST)Temp. (ºf)Humidity (%)Dew Point (ºf)Barometer (inHG)Wind Speed (mph)Wind DirectionWind Gust (mph)1hr. Precip / Rain Total (in.)Snow Depth
11:54 PM268822.94-2.61ne4.34--
10:54 PM278924.2-2.61ne4.34--
9:54 PM288824.91-1.74ene4.34--
8:54 PM289025.45-0.87nne5.21--
7:54 PM299026.44-0.87n4.34--
6:54 PM308726.61-1.74nne4.34--
5:54 PM338127.82-0.87ne3.48--
4:54 PM386527.3-0.87nnw6.95--
3:54 PM425727.88-1.74wnw11.3--
2:54 PM445227.52-4.34nw11.3--
12:54 PM464927.92-3.48nw11.3--
11:54 AM435427.51-4.34nw12.17--
10:54 AM445127.05-3.48nw9.56--
9:54 AM415927.78-1.74nw6.95--
8:54 AM318426.74-0.87ne5.21--
7:54 AM248520.16-2.61ne5.21--
6:54 AM238920.25-2.61ne4.34--
5:54 AM229019.53-1.74ene4.34--
4:54 AM239020.51-2.61ne5.21--
1:54 AM249121.76-1.74ne4.34--
12:54 AM259022.49-0.87ne4.34--
High: 45ºf @1:54 PM    Low: 23ºf @6:54 AM     Approx. Precipitation / Rain Total: in.
Time (PST)Temp. (ºf)Humidity (%)Dew Point (ºf)Barometer (inHG)Wind Speed (mph)Wind DirectionWind Gust (mph)1hr. Precip / Rain Total (in.)Snow Depth
11:54 PM269023.48-2.61ne4.34--
10:54 PM279124.73-1.74ne4.34--
9:54 PM279325.25-1.74ne3.48--
8:54 PM289125.72-1.74nne4.34--
7:54 PM289025.45-2.61ene3.48--
6:54 PM298725.63-1.74ne2.61--
4:54 PM367127.52-0.87nnw4.34--
3:54 PM415827.37-1.74nnw11.3--
2:54 PM435527.95-3.48nw11.3--
1:54 PM455228.45-3.48nnw11.3--
12:54 PM445428.44-3.48nw10.43--
11:54 AM435427.51-4.34nw11.3--
10:54 AM416028.19-3.48nw9.56--
9:54 AM396427.87-2.61nw7.82--
8:54 AM347727.56-1.74nw5.21--
7:54 AM259022.49-1.74ene4.34--
6:54 AM239120.77-1.74ne4.34--
5:54 AM249121.76-1.74ene3.48--
4:54 AM269023.48-0.87ene3.48--
3:54 AM289125.72-0.87nne3.48--
2:54 AM259323.27-0.87ne3.48--
1:54 AM269324.26-1.74ne3.48--
12:54 AM279325.25-2.61ne4.34--
High: 49ºf @12:54 PM    Low: 27ºf @11:54 PM     Approx. Precipitation / Rain Total: in.
Time (PST)Temp. (ºf)Humidity (%)Dew Point (ºf)Barometer (inHG)Wind Speed (mph)Wind DirectionWind Gust (mph)1hr. Precip / Rain Total (in.)Snow Depth
11:54 PM279325.25-1.74ene3.48--
10:54 PM289426.5-1.74ne3.48--
9:54 PM299327.23-1.74nne3.48--
8:54 PM299427.49-0.87nne2.61--
6:54 PM348730.55-1.74ne2.61--
5:54 PM358430.66---2.61--
4:54 PM396929.71---4.34--
3:54 PM435929.66-0.87w7.82--
2:54 PM455630.26-0.87w4.34--
1:54 PM465229.37-1.74se5.21--
12:54 PM495131.67-1.74wsw6.08--
11:54 AM486034.79-0.87w6.08--
10:54 AM456935.45-0.87sw5.21--
9:54 AM427634.99-1.74se4.34--
8:54 AM379736.23-1.74nw3.48--
7:54 AM349733.24---2.61--
6:54 AM329731.25-0.87ne2.61--
5:54 AM359734.24---1.74--
4:54 AM369534.71---8.69--
3:54 AM369133.63-3.48se12.17--
2:54 AM369233.91-3.48se7.82--
1:54 AM388433.6-3.48ese7.82--
12:54 AM388333.3-4.34ese9.56--
High: 51ºf @12:54 PM    Low: 34ºf @7:54 PM     Approx. Precipitation / Rain Total: in.
Time (PST)Temp. (ºf)Humidity (%)Dew Point (ºf)Barometer (inHG)Wind Speed (mph)Wind DirectionWind Gust (mph)1hr. Precip / Rain Total (in.)Snow Depth
11:54 PM368531.94-4.34e10.43--
10:54 PM368531.94-4.34e8.69--
9:54 PM378532.92-5.21ese11.3--
8:54 PM369233.91-3.48ese9.56--
7:54 PM349632.98-0.87ene3.48--
6:54 PM389636.96---2.61--
5:54 PM399236.88-0.87ne4.34--
4:54 PM428036.29-0.87w5.21--
3:54 PM428337.22-0.87ssw5.21--
2:54 PM456132.37---9.56--
1:54 PM466534.9-1.74s9.56--
12:54 PM516338.85-2.61se8.69--
11:54 AM496537.75-2.61se7.82--
10:54 AM448238.86-1.74sw6.95--
9:54 AM449041.26---5.21--
8:54 AM468642.05-0.87nne10.43--
7:54 AM439541.67-4.34ese9.56--
6:54 AM439240.84-4.34se11.3--
5:54 AM439040.27-5.21ese9.56--
4:54 AM438839.69-5.21ese11.3--
3:54 AM438939.98-6.08ese12.17--
2:54 AM439040.27-4.34se10.43--
1:54 AM448439.48-6.08ese13.03--
12:54 AM448740.38-6.08ese12.17--
High: 49ºf @12:54 AM    Low: 40ºf @11:54 AM     Approx. Precipitation / Rain Total: in.
Time (PST)Temp. (ºf)Humidity (%)Dew Point (ºf)Barometer (inHG)Wind Speed (mph)Wind DirectionWind Gust (mph)1hr. Precip / Rain Total (in.)Snow Depth
11:54 PM448840.68-6.08e11.3--
10:54 PM448339.17-6.95ese12.17--
9:54 PM439040.27---10.43--
8:54 PM459042.25-6.08ese13.03--
7:54 PM459142.53-6.08ese13.9--
6:54 PM449342.11-6.08ese12.17--
5:54 PM449141.54-6.95ese12.17--
4:54 PM449342.11-6.08ese12.17--
3:54 PM449442.39-6.08ese14.77--
2:54 PM439541.67-6.95ese14.77--
1:54 PM429841.48-6.95se15.64--
11:54 AM409237.87-5.21se16.51--
10:54 AM429239.85-9.56ese26.94--
9:54 AM439441.39-5.21se19.12--
8:54 AM448740.38-6.95se18.25--
7:54 AM467538.53-6.95se23.46--
6:54 AM467939.86-10.43se23.46--
5:54 AM468040.18-8.69se21.72--
4:54 AM468140.5-7.82se19.99--
1:54 AM497340.73-5.21sse19.12--
12:54 AM497441.08-8.69se17.38--
High: 62ºf @1:54 PM    Low: 35ºf @6:54 AM     Approx. Precipitation / Rain Total: in.
Time (PST)Temp. (ºf)Humidity (%)Dew Point (ºf)Barometer (inHG)Wind Speed (mph)Wind DirectionWind Gust (mph)1hr. Precip / Rain Total (in.)Snow Depth
11:54 PM488343.09-4.34se14.77--
10:54 PM507241.33-6.95se16.51--
9:54 PM429741.21-1.74sse6.08--
8:54 PM409338.14---2.61--
7:54 PM438538.8---3.48--
6:54 PM469143.52-0.87sse4.34--
5:54 PM508345.04-0.87s6.08--
4:54 PM537745.98-0.87s6.08--
3:54 PM585441.45-1.74sse8.69--
2:54 PM605744.72-1.74sse11.3--
1:54 PM624339.25-1.74s10.43--
12:54 PM595743.79-4.34se9.56--
11:54 AM596346.42-2.61se8.69--
10:54 AM596748.06-1.74s7.82--
9:54 AM547947.63-1.74sw5.21--
8:54 AM459944.74-0.87ssw3.48--
7:54 AM379836.49---2.61--
6:54 AM359834.49---2.61--
5:54 AM379836.49-0.87ne1.74--
4:54 AM389837.49---2.61--
3:54 AM419840.48---1.74--
2:54 AM439742.21---2.61--
1:54 AM449743.2-0.87s9.56--
12:54 AM449642.93-0.87s6.08--
High: 45ºf @11:54 PM    Low: 38ºf @5:54 AM     Approx. Precipitation / Rain Total: in.
Time (PST)Temp. (ºf)Humidity (%)Dew Point (ºf)Barometer (inHG)Wind Speed (mph)Wind DirectionWind Gust (mph)1hr. Precip / Rain Total (in.)Snow Depth
11:54 PM459643.93-2.61sse8.69--
10:54 PM449342.11-0.87sse9.56--
9:54 PM439942.74-2.61se7.82--
8:54 PM399838.48---1.74--
7:54 PM409839.48---4.34--
6:54 PM409739.22---2.61--
5:54 PM409739.22---2.61--
4:54 PM429239.85---13.03--
3:54 PM438639.1-6.08se14.77--
2:54 PM438538.8-6.95ese13.03--
1:54 PM418637.14-5.21se11.3--
12:54 PM409438.41-3.48sse10.43--
11:54 AM409237.87-4.34se11.3--
10:54 AM409237.87-6.08ese12.17--
9:54 AM399437.42-5.21se14.77--
8:54 AM399236.88-6.95se17.38--
7:54 AM399236.88-6.95ese14.77--
6:54 AM399136.6-7.82ese15.64--
5:54 AM389336.16-7.82ese16.51--
4:54 AM389035.33-7.82ese18.25--
3:54 AM398835.75-7.82se16.51--
2:54 AM398936.04-7.82ese18.25--
1:54 AM389035.33-8.69ese19.99--
12:54 AM398233.98-8.69ese18.25--
High: 40ºf @1:54 PM    Low: 26ºf @6:54 AM     Approx. Precipitation / Rain Total: in.
Time (PST)Temp. (ºf)Humidity (%)Dew Point (ºf)Barometer (inHG)Wind Speed (mph)Wind DirectionWind Gust (mph)1hr. Precip / Rain Total (in.)Snow Depth
11:54 PM407633.06-8.69e20.86--
10:54 PM397230.75-5.21se13.03--
9:54 PM406930.66-5.21se14.77--
8:54 PM397331.09-6.08ese11.3--
7:54 PM359333.18---7.82--
6:54 PM378131.72-2.61ese7.82--
5:54 PM387932.08-3.48ese11.3--
4:54 PM387530.79-5.21ese9.56--
3:54 PM397331.09-4.34ese9.56--
2:54 PM406830.3-5.21ese10.43--
1:54 PM406428.82-3.48se9.56--
12:54 PM388734.48-0.87ssw4.34--
11:54 AM388834.77---3.48--
10:54 AM378934.06---3.48--
9:54 AM349031.38---2.61--
8:54 AM339431.47---3.48--
7:54 AM289526.76-0.87ne2.61--
6:54 AM269524.77-1.74ne3.48--
5:54 AM279525.76---3.48--
4:54 AM279525.76-0.87ene3.48--
3:54 AM299427.49-0.87ene3.48--
2:54 AM309328.23---3.48--
1:54 AM328929.13-1.74ssw9.56--
12:54 AM348429.68-2.61nnw9.56--
High: 41ºf @12:54 AM    Low: 30ºf @10:54 PM     Approx. Precipitation / Rain Total: in.
Time (PST)Temp. (ºf)Humidity (%)Dew Point (ºf)Barometer (inHG)Wind Speed (mph)Wind DirectionWind Gust (mph)1hr. Precip / Rain Total (in.)Snow Depth
11:54 PM319830.5-0.87nw4.34--
10:54 PM309829.5---3.48--
9:54 PM329831.5---2.61--
8:54 PM329831.5---2.61--
6:54 PM349733.24---3.48--
5:54 PM349733.24---3.48--
4:54 PM359633.98-0.87sse6.08--
3:54 PM369334.18-2.61sse6.95--
2:54 PM369133.63-3.48ese12.17--
1:54 PM359132.64-6.08ese13.9--
12:54 PM368933.08-7.82ese16.51--
11:54 AM359232.92-6.95ese11.3--
9:54 AM339331.2-7.82ese19.12--
8:54 AM349231.92-9.56se22.59--
7:54 AM349231.92-8.69se19.12--
6:54 AM359232.92-10.43ese19.99--
5:54 AM359232.92-8.69ese18.25--
4:54 AM358932.09-7.82ese15.64--
3:54 AM377730.47-8.69se18.25--
2:54 AM405926.84-6.95se17.38--
1:54 AM405223.81-6.08se15.64--
12:54 AM415023.8-6.08ese13.9--
High: 52ºf @1:54 PM    Low: 18ºf @6:54 AM     Approx. Precipitation / Rain Total: in.
Time (PST)Temp. (ºf)Humidity (%)Dew Point (ºf)Barometer (inHG)Wind Speed (mph)Wind DirectionWind Gust (mph)1hr. Precip / Rain Total (in.)Snow Depth
11:54 PM414822.83-7.82se15.64--
10:54 PM414722.33-8.69ese16.51--
9:54 PM414822.83-6.08se10.43--
8:54 PM424723.25-6.08se13.03--
7:54 PM433919.76-6.08se12.17--
6:54 PM434020.35-4.34ese9.56--
5:54 PM434020.35-3.48ese6.95--
4:54 PM453519.01-3.48se11.3--
3:54 PM483118.83-2.61sse13.03--
2:54 PM512718.21-3.48sse12.17--
1:54 PM522819.92-3.48sse13.9--
12:54 PM503019.8-4.34se11.3--
11:54 AM512919.88-3.48sse10.43--
10:54 AM483823.62-0.87sw2.61--
9:54 AM395423.78---2.61--
8:54 AM287822.04-0.87ne3.48--
7:54 AM248018.74---3.48--
6:54 AM188414-0.87ne4.34--
5:54 AM198414.98-0.87ne3.48--
4:54 AM198515.25---3.48--
3:54 AM208415.96-0.87ne3.48--
2:54 AM218617.48---4.34--
1:54 AM238418.9-1.74ne4.34--
12:54 AM238819.99---2.61--
High: 51ºf @12:54 PM    Low: 24ºf @5:54 AM     Approx. Precipitation / Rain Total: in.
Time (PST)Temp. (ºf)Humidity (%)Dew Point (ºf)Barometer (inHG)Wind Speed (mph)Wind DirectionWind Gust (mph)1hr. Precip / Rain Total (in.)Snow Depth
11:54 PM248820.97---2.61--
10:54 PM248620.43---2.61--
9:54 PM268321.56-0.87nne2.61--
8:54 PM278021.67-0.87nne3.48--
7:54 PM297923.32-1.74nne3.48--
6:54 PM307623.37-0.87ne2.61--
5:54 PM356424.07-1.74ne3.48--
4:54 PM415023.8---6.95--
3:54 PM464224.21-1.74nw6.95--
2:54 PM483823.62-2.61nnw9.56--
1:54 PM503523.44-3.48wnw7.82--
12:54 PM513826.3-2.61nw8.69--
11:54 AM503926.03-1.74sw6.08--
10:54 AM484024.84-2.61n6.95--
9:54 AM445528.88-0.87wsw3.48--
8:54 AM367027.18-0.87se2.61--
7:54 AM278823.93-0.87n3.48--
6:54 AM249121.76-0.87nne2.61--
5:54 AM249121.76-0.87nne2.61--
4:54 AM269023.48---3.48--
3:54 AM259122.75-0.87ne3.48--
2:54 AM259022.49-0.87ne4.34--
1:54 AM268923.21---3.48--
12:54 AM278723.66-0.87e3.48--
High: 55ºf @1:54 PM    Low: 25ºf @6:54 AM     Approx. Precipitation / Rain Total: in.
Time (PST)Temp. (ºf)Humidity (%)Dew Point (ºf)Barometer (inHG)Wind Speed (mph)Wind DirectionWind Gust (mph)1hr. Precip / Rain Total (in.)Snow Depth
11:54 PM288524.09-0.87ne2.61--
10:54 PM328026.54---3.48--
9:54 PM386627.67-0.87wnw8.69--
8:54 PM386527.3-1.74nnw8.69--
7:54 PM386928.75-2.61wnw6.95--
6:54 PM406428.82-1.74nw8.69--
5:54 PM416028.19-1.74nw8.69--
4:54 PM435929.66---3.48--
3:54 PM475029.34-0.87w6.95--
2:54 PM514329.3-0.87wnw7.82--
1:54 PM553326.43-0.87ssw6.08--
12:54 PM543929.61-0.87s5.21--
11:54 AM513423.63-1.74ssw5.21--
10:54 AM493925.13-1.74ssw5.21--
9:54 AM444524.04---2.61--
8:54 AM375723.2---2.61--
7:54 AM298324.5-0.87ne2.61--
6:54 AM258821.96-0.87nne3.48--
5:54 AM278623.38-1.74ne3.48--
4:54 AM298324.5-0.87nne2.61--
3:54 AM337124.64---1.74--
2:54 AM336823.61---2.61--
1:54 AM347025.26---2.61--
High: 43ºf @12:54 PM    Low: 26ºf @6:54 AM     Approx. Precipitation / Rain Total: in.
Time (PST)Temp. (ºf)Humidity (%)Dew Point (ºf)Barometer (inHG)Wind Speed (mph)Wind DirectionWind Gust (mph)1hr. Precip / Rain Total (in.)Snow Depth
11:54 PM326822.65---2.61--
10:54 PM326621.95-0.87ne2.61--
9:54 PM316821.7-0.87nne3.48--
8:54 PM326521.59-0.87nne3.48--
7:54 PM335920.26-0.87sse4.34--
6:54 PM316319.9-1.74ne4.34--
5:54 PM364717.75-0.87nne6.08--
4:54 PM374718.67-0.87wnw9.56--
3:54 PM394217.88-2.61n10.43--
2:54 PM404118.22-2.61n11.3--
1:54 PM403816.47-3.48nne8.69--
12:54 PM433718.53-0.87nne8.69--
11:54 AM394117.32-4.34nnw13.9--
10:54 AM384216.97-3.48nw12.17--
9:54 AM364516.74-3.48nw11.3--
8:54 AM325618.1-3.48nnw10.43--
7:54 AM286618.13-4.34n13.9--
6:54 AM266716.57-3.48n8.69--
5:54 AM267218.23-3.48nne7.82--
3:54 AM277319.52---7.82--
2:54 AM287220.16-0.87nne7.82--
1:54 AM277419.84-1.74nnw8.69--
12:54 AM287420.8-2.61nne8.69--
High: 37ºf @1:54 PM    Low: 27ºf @10:54 PM     Approx. Precipitation / Rain Total: in.
Time (PST)Temp. (ºf)Humidity (%)Dew Point (ºf)Barometer (inHG)Wind Speed (mph)Wind DirectionWind Gust (mph)1hr. Precip / Rain Total (in.)Snow Depth
11:54 PM277419.84-3.48ene7.82--
10:54 PM277419.84-1.74e10.43--
9:54 PM286919.17-0.87ne10.43--
8:54 PM296719.44-3.48nnw17.38--
7:54 PM306419.32-4.34n13.9--
6:54 PM306519.68-1.74nnw9.56--
5:54 PM326120.09-2.61nw13.03--
4:54 PM326220.48-1.74nw10.43--
3:54 PM335920.26-2.61nnw12.17--
2:54 PM355420.06-4.34nw13.03--
1:54 PM375020.11-6.08nw13.9--
12:54 PM365621.84-3.48nw13.9--
11:54 AM336522.54-3.48nw16.51--
10:54 AM326421.22-5.21nw17.38--
9:54 AM336422.17-5.21wnw13.9--
8:54 AM316620.99-4.34nw13.03--
7:54 AM316319.9-3.48nnw13.03--
6:54 AM297020.46-4.34nnw17.38--
5:54 AM306921.08-4.34nnw13.9--
4:54 AM308225.18-4.34nnw17.38--
3:54 AM318426.74-4.34n12.17--
2:54 AM318025.57-2.61nw11.3--
1:54 AM337525.96-3.48nnw13.9--
12:54 AM346824.57-4.34nnw14.77--
High: 44ºf @12:54 PM    Low: 33ºf @3:54 AM     Approx. Precipitation / Rain Total: in.
Time (PST)Temp. (ºf)Humidity (%)Dew Point (ºf)Barometer (inHG)Wind Speed (mph)Wind DirectionWind Gust (mph)1hr. Precip / Rain Total (in.)Snow Depth
11:54 PM338328.41-3.48nw9.56--
10:54 PM348028.49-2.61nw9.56--
9:54 PM337826.9-0.87wnw7.82--
8:54 PM357327.24-0.87nw6.95--
7:54 PM375723.2-1.74n8.69--
6:54 PM375924.02-2.61nnw13.9--
5:54 PM376225.21-4.34n13.03--
4:54 PM376225.21-3.48nnw13.03--
2:54 PM406629.57-3.48nw13.9--
1:54 PM436230.88-4.34nnw18.25--
12:54 PM446533-4.34wnw13.9--
11:54 AM398133.67-0.87wnw17.38--
10:54 AM398133.67-6.08nnw17.38--
9:54 AM388935.05-4.34nw13.9--
8:54 AM359333.18-3.48nw13.03--
7:54 AM349532.72-4.34n11.3--
6:54 AM339631.99-0.87nw5.21--
5:54 AM339531.73-1.74wnw6.08--
4:54 AM339431.47-1.74nw11.3--
3:54 AM339331.2-1.74wnw6.95--
2:54 AM348931.11-0.87wnw9.56--
1:54 AM358330.37-2.61n12.17--
12:54 AM377028.14-2.61nw11.3--
High: 57ºf @12:54 AM    Low: 37ºf @11:54 PM     Approx. Precipitation / Rain Total: in.
Time (PST)Temp. (ºf)Humidity (%)Dew Point (ºf)Barometer (inHG)Wind Speed (mph)Wind DirectionWind Gust (mph)1hr. Precip / Rain Total (in.)Snow Depth
11:54 PM376827.44-3.48nnw13.03--
10:54 PM377128.49-4.34nnw11.3--
9:54 PM376927.79-2.61nnw15.64--
8:54 PM376827.44-2.61nw12.17--
7:54 PM386527.3-4.34nnw13.9--
6:54 PM396026.31-3.48nnw14.77--
5:54 PM404821.91-3.48nnw13.03--
4:54 PM424522.22-2.61nnw9.56--
3:54 PM434422.6-2.61nnw10.43--
2:54 PM444624.57-3.48nw12.17--
1:54 PM464425.32-4.34nw13.03--
12:54 PM503926.03-3.48nnw10.43--
11:54 AM494226.92-5.21nnw13.03--
10:54 AM484326.58-2.61nnw13.03--
9:54 AM475029.34-4.34n13.03--
8:54 AM445528.88-2.61nnw13.03--
7:54 AM425828.31-3.48nw10.43--
6:54 AM406428.82-3.48nnw12.17--
5:54 AM426430.72-2.61nnw13.9--
4:54 AM436833.17-4.34n20.86--
3:54 AM456835.08-4.34n16.51--
2:54 AM526942.15-2.61ese11.3--
1:54 AM546642.9-3.48sse11.3--
12:54 AM576244.11-4.34se13.03--
High: 77ºf @11:54 AM    Low: 39ºf @5:54 AM     Approx. Precipitation / Rain Total: in.
Time (PST)Temp. (ºf)Humidity (%)Dew Point (ºf)Barometer (inHG)Wind Speed (mph)Wind DirectionWind Gust (mph)1hr. Precip / Rain Total (in.)Snow Depth
11:54 PM585943.75-4.34se12.17--
10:54 PM595542.85-5.21ese14.77--
8:54 PM536039.49---6.95--
7:54 PM506137.09-0.87ene4.34--
6:54 PM555237.7-1.74e4.34--
5:54 PM585340.96-1.74nne5.21--
4:54 PM644139.82-0.87n6.08--
3:54 PM703339.56-1.74wnw8.69--
2:54 PM733140.57-1.74wnw6.95--
1:54 PM743040.59-2.61nw7.82--
12:54 PM743040.59-2.61nw7.82--
11:54 AM772336.35-0.87wsw3.48--
10:54 AM712937.13-0.87s2.61--
9:54 AM674041.87-0.87n4.34--
8:54 AM585240.47-0.87wnw4.34--
7:54 AM456433.57-1.74ne5.21--
5:54 AM397431.43-1.74ene6.08--
4:54 AM416831.26-2.61ne6.08--
3:54 AM407633.06-1.74ne5.21--
2:54 AM427333.98-3.48ne6.95--
1:54 AM447135.21-2.61ne6.08--
12:54 AM418035.31-1.74ne4.34--
High: 56ºf @5:54 PM    Low: 41ºf @11:54 PM     Approx. Precipitation / Rain Total: in.
Time (PST)Temp. (ºf)Humidity (%)Dew Point (ºf)Barometer (inHG)Wind Speed (mph)Wind DirectionWind Gust (mph)1hr. Precip / Rain Total (in.)Snow Depth
11:54 PM417935-2.61ne4.34--
10:54 PM428036.29---3.48--
9:54 PM447536.59-0.87ne4.34--
8:54 PM467137.13-2.61nne3.48--
7:54 PM476836.99-1.74nne3.48--
6:54 PM516037.61-1.74nne4.34--
5:54 PM565339.11-0.87-4.34--
Past Weather Disclaimer Note regarding "Approx. Precipitation / Rain Total"

Currently

Fair 31°F
30.25in
Barometer
82%
Humidity
North 0.0mph
Wind
Fair

Past Weather Nearby

More Local Information

Bookmark and Share

Go Ad Free - Become a Member